Torna al catalogo

HULIANWANG DIGUI-79

AttivoComunicazioniLEO
NORAD 65311·PAYLOAD·🇨🇳 China

Lanciato Aug 25, 2025 da Wenchang Space Launch Site

Loading…

Prossimi Passaggi (prossime 24 ore)

TLE

AggiornatoSource: Space-Track

Epoca: Sep 14, 2026, 13:25 UTC

1 65311U 25187G   26257.55950416 -.00000100  00000-0  51691-4 0  9994
2 65311  50.0026 245.6111 0000622 337.7830  22.3015 13.29322125 51584

Traccia HULIANWANG DIGUI-79 in tempo reale con AllMySat

Download on the App Store